HST
1 20580U 90037B   24115.97632986  .00011004  00000-0  53289-3 0  9993
2 20580  28.4693 341.4370 0002577 173.3927 186.6699 15.16946101669206
ISS (ZARYA)
1 25544U 98067A   24116.31357419  .00043726  00000-0  74591-3 0  9998
2 25544  51.6398 217.5767 0005150  95.7032   1.7002 15.50884989450349
CXO
1 25867U 99040B   24117.62037667  .00000975  00000-0  00000-0 0  9993
2 25867  40.0197 158.9023 8934821 292.7482   0.0246  0.37814106 14375